Year,Month,Day,Hour,Minute,Value (Times are PST for windspeed in km/hr)
2016,10,06,00,00,0.00
2016,10,06,00,01,0.00
2016,10,06,00,02,0.00
2016,10,06,00,03,0.00
2016,10,06,00,04,0.00
2016,10,06,00,05,0.00
2016,10,06,00,06,0.00
2016,10,06,00,07,0.00
2016,10,06,00,08,0.00
2016,10,06,00,09,0.60
2016,10,06,00,10,0.50
2016,10,06,00,11,0.00
2016,10,06,00,12,0.00
2016,10,06,00,13,0.00
2016,10,06,00,14,0.00
2016,10,06,00,15,0.00
2016,10,06,00,16,0.00
2016,10,06,00,17,0.00
2016,10,06,00,18,0.00
2016,10,06,00,19,0.00
2016,10,06,00,20,0.00
2016,10,06,00,21,0.00
2016,10,06,00,22,0.00
2016,10,06,00,23,0.00
2016,10,06,00,24,0.00
2016,10,06,00,25,0.00
2016,10,06,00,26,0.00
2016,10,06,00,27,0.00
2016,10,06,00,28,0.00
2016,10,06,00,29,0.00
2016,10,06,00,30,0.00
2016,10,06,00,31,0.00
2016,10,06,00,32,0.00
2016,10,06,00,33,0.00
2016,10,06,00,34,0.00
2016,10,06,00,35,0.00
2016,10,06,00,36,0.00
2016,10,06,00,37,0.00
2016,10,06,00,38,0.00
2016,10,06,00,39,0.00
2016,10,06,00,40,0.00
2016,10,06,00,41,0.00
2016,10,06,00,42,0.00
2016,10,06,00,43,0.00
2016,10,06,00,44,0.10
2016,10,06,00,45,0.00
2016,10,06,00,46,0.40
2016,10,06,00,47,0.20
2016,10,06,00,48,1.00
2016,10,06,00,49,1.40
2016,10,06,00,50,1.70
2016,10,06,00,51,0.90
2016,10,06,00,52,0.00
2016,10,06,00,53,0.00
2016,10,06,00,54,0.10
2016,10,06,00,55,0.60
2016,10,06,00,56,2.00
2016,10,06,00,57,2.00
2016,10,06,00,58,1.70
2016,10,06,00,59,2.80
2016,10,06,01,00,3.70
2016,10,06,01,01,3.40
2016,10,06,01,02,4.20
2016,10,06,01,03,5.10
2016,10,06,01,04,4.30
2016,10,06,01,05,5.80
2016,10,06,01,06,2.50
2016,10,06,01,07,3.40
2016,10,06,01,08,4.20
2016,10,06,01,09,2.30
2016,10,06,01,10,1.20
2016,10,06,01,11,0.00
2016,10,06,01,12,0.40
2016,10,06,01,13,1.00
2016,10,06,01,14,2.10
2016,10,06,01,15,1.00
2016,10,06,01,16,3.10
2016,10,06,01,17,2.00
2016,10,06,01,18,3.80
2016,10,06,01,19,3.50
2016,10,06,01,20,3.50
2016,10,06,01,21,6.70
2016,10,06,01,22,4.50
2016,10,06,01,23,4.20
2016,10,06,01,24,7.20
2016,10,06,01,25,4.80
2016,10,06,01,26,3.70
2016,10,06,01,27,3.70
2016,10,06,01,28,4.70
2016,10,06,01,29,4.10
2016,10,06,01,30,1.80
2016,10,06,01,31,2.80
2016,10,06,01,32,3.40
2016,10,06,01,33,3.20
2016,10,06,01,34,4.00
2016,10,06,01,35,2.90
2016,10,06,01,36,3.70
2016,10,06,01,37,4.30
2016,10,06,01,38,3.10
2016,10,06,01,39,3.10
2016,10,06,01,40,1.50
2016,10,06,01,41,4.80
2016,10,06,01,42,4.40
2016,10,06,01,43,2.20
2016,10,06,01,44,5.30
2016,10,06,01,45,7.70
2016,10,06,01,46,4.70
2016,10,06,01,47,4.40
2016,10,06,01,48,5.90
2016,10,06,01,49,8.10
2016,10,06,01,50,7.00
2016,10,06,01,51,7.00
2016,10,06,01,52,4.70
2016,10,06,01,53,8.60
2016,10,06,01,54,5.70
2016,10,06,01,55,5.20
2016,10,06,01,56,9.50
2016,10,06,01,57,10.20
2016,10,06,01,58,8.70
2016,10,06,01,59,5.60
2016,10,06,02,00,4.30
2016,10,06,02,01,7.70
2016,10,06,02,02,6.00
2016,10,06,02,03,5.40
2016,10,06,02,04,3.50
2016,10,06,02,05,8.70
2016,10,06,02,06,7.70
2016,10,06,02,07,9.00
2016,10,06,02,08,9.50
2016,10,06,02,09,5.30
2016,10,06,02,10,6.10
2016,10,06,02,11,5.90
2016,10,06,02,12,8.70
2016,10,06,02,13,6.10
2016,10,06,02,14,10.90
2016,10,06,02,15,7.80
2016,10,06,02,16,10.30
2016,10,06,02,17,10.30
2016,10,06,02,18,8.20
2016,10,06,02,19,10.10
2016,10,06,02,20,12.60
2016,10,06,02,21,10.50
2016,10,06,02,22,14.90
2016,10,06,02,23,12.00
2016,10,06,02,24,10.90
2016,10,06,02,25,11.10
2016,10,06,02,26,11.70
2016,10,06,02,27,12.80
2016,10,06,02,28,10.30
2016,10,06,02,29,11.30
2016,10,06,02,30,7.50
2016,10,06,02,31,10.70
2016,10,06,02,32,10.50
2016,10,06,02,33,12.00
2016,10,06,02,34,11.10
2016,10,06,02,35,8.70
2016,10,06,02,36,11.20
2016,10,06,02,37,9.80
2016,10,06,02,38,11.40
2016,10,06,02,39,9.00
2016,10,06,02,40,12.20
2016,10,06,02,41,14.40
2016,10,06,02,42,12.60
2016,10,06,02,43,10.10
2016,10,06,02,44,11.70
2016,10,06,02,45,14.00
2016,10,06,02,46,8.60
2016,10,06,02,47,10.20
2016,10,06,02,48,7.10
2016,10,06,02,49,8.70
2016,10,06,02,50,11.90
2016,10,06,02,51,14.90
2016,10,06,02,52,11.70
2016,10,06,02,53,7.80
2016,10,06,02,54,13.90
2016,10,06,02,55,11.50
2016,10,06,02,56,12.20
2016,10,06,02,57,9.00
2016,10,06,02,58,8.90
2016,10,06,02,59,9.40
2016,10,06,03,00,12.30
2016,10,06,03,01,9.10
2016,10,06,03,02,12.40
2016,10,06,03,03,9.60
2016,10,06,03,04,9.60
2016,10,06,03,05,12.30
2016,10,06,03,06,9.60
2016,10,06,03,07,9.40
2016,10,06,03,08,10.60
2016,10,06,03,09,9.40
2016,10,06,03,10,9.50
2016,10,06,03,11,8.50
2016,10,06,03,12,9.20
2016,10,06,03,13,10.40
2016,10,06,03,14,10.90
2016,10,06,03,15,9.70
2016,10,06,03,16,7.00
2016,10,06,03,17,8.70
2016,10,06,03,18,7.10
2016,10,06,03,19,9.60
2016,10,06,03,20,11.20
2016,10,06,03,21,11.50
2016,10,06,03,22,10.60
2016,10,06,03,23,13.60
2016,10,06,03,24,10.80
2016,10,06,03,25,11.70
2016,10,06,03,26,8.70
2016,10,06,03,27,9.10
2016,10,06,03,28,8.80
2016,10,06,03,29,9.70
2016,10,06,03,30,10.50
2016,10,06,03,31,8.70
2016,10,06,03,32,8.10
2016,10,06,03,33,7.60
2016,10,06,03,34,7.80
2016,10,06,03,35,7.80
2016,10,06,03,36,6.60
2016,10,06,03,37,8.00
2016,10,06,03,38,5.30
2016,10,06,03,39,6.00
2016,10,06,03,40,6.40
2016,10,06,03,41,7.40
2016,10,06,03,42,8.40
2016,10,06,03,43,8.20
2016,10,06,03,44,9.60
2016,10,06,03,45,6.90
2016,10,06,03,46,6.80
2016,10,06,03,47,7.00
2016,10,06,03,48,6.60
2016,10,06,03,49,6.50
2016,10,06,03,50,4.70
2016,10,06,03,51,5.00
2016,10,06,03,52,6.40
2016,10,06,03,53,6.80
2016,10,06,03,54,5.80
2016,10,06,03,55,6.10
2016,10,06,03,56,7.20
2016,10,06,03,57,5.60
2016,10,06,03,58,7.30
2016,10,06,03,59,6.40
2016,10,06,04,00,7.60
2016,10,06,04,01,8.10
2016,10,06,04,02,7.40
2016,10,06,04,03,6.20
2016,10,06,04,04,9.00
2016,10,06,04,05,7.10
2016,10,06,04,06,5.50
2016,10,06,04,07,8.40
2016,10,06,04,08,7.40
2016,10,06,04,09,5.40
2016,10,06,04,10,6.40
2016,10,06,04,11,6.60
2016,10,06,04,12,8.00
2016,10,06,04,13,7.40
2016,10,06,04,14,7.00
2016,10,06,04,15,7.50
2016,10,06,04,16,6.00
2016,10,06,04,17,9.20
2016,10,06,04,18,7.70
2016,10,06,04,19,6.00
2016,10,06,04,20,6.20
2016,10,06,04,21,5.40
2016,10,06,04,22,7.10
2016,10,06,04,23,9.50
2016,10,06,04,24,6.90
2016,10,06,04,25,5.40
2016,10,06,04,26,8.60
2016,10,06,04,27,6.30
2016,10,06,04,28,6.40
2016,10,06,04,29,7.10
2016,10,06,04,30,5.30
2016,10,06,04,31,5.00
2016,10,06,04,32,6.10
2016,10,06,04,33,5.50
2016,10,06,04,34,7.40
2016,10,06,04,35,6.40
2016,10,06,04,36,6.50
2016,10,06,04,37,6.10
2016,10,06,04,38,7.30
2016,10,06,04,39,9.00
2016,10,06,04,40,6.20
2016,10,06,04,41,7.10
2016,10,06,04,42,7.20
2016,10,06,04,43,6.70
2016,10,06,04,44,7.40
2016,10,06,04,45,5.60
2016,10,06,04,46,10.10
2016,10,06,04,47,7.50
2016,10,06,04,48,7.80
2016,10,06,04,49,6.50
2016,10,06,04,50,6.00
2016,10,06,04,51,10.70
2016,10,06,04,52,9.90
2016,10,06,04,53,9.70
2016,10,06,04,54,9.40
2016,10,06,04,55,9.20
2016,10,06,04,56,10.50
2016,10,06,04,57,9.20
2016,10,06,04,58,5.70
2016,10,06,04,59,7.90
2016,10,06,05,00,8.30
2016,10,06,05,01,6.80
2016,10,06,05,02,8.10
2016,10,06,05,03,7.80
2016,10,06,05,04,6.20
2016,10,06,05,05,7.90
2016,10,06,05,06,5.90
2016,10,06,05,07,9.50
2016,10,06,05,08,9.10
2016,10,06,05,09,10.80
2016,10,06,05,10,11.80
2016,10,06,05,11,11.10
2016,10,06,05,12,10.50
2016,10,06,05,13,6.10
2016,10,06,05,14,8.60
2016,10,06,05,15,8.90
2016,10,06,05,16,9.10
2016,10,06,05,17,8.40
2016,10,06,05,18,8.90
2016,10,06,05,19,7.40
2016,10,06,05,20,9.40
2016,10,06,05,21,9.70
2016,10,06,05,22,9.70
2016,10,06,05,23,8.00
2016,10,06,05,24,9.20
2016,10,06,05,25,10.00
2016,10,06,05,26,5.20
2016,10,06,05,27,7.70
2016,10,06,05,28,6.90
2016,10,06,05,29,7.20
2016,10,06,05,30,6.20
2016,10,06,05,31,4.40
2016,10,06,05,32,7.80
2016,10,06,05,33,5.00
2016,10,06,05,34,5.00
2016,10,06,05,35,6.70
2016,10,06,05,36,7.70
2016,10,06,05,37,8.10
2016,10,06,05,38,7.50
2016,10,06,05,39,7.50
2016,10,06,05,40,7.70
2016,10,06,05,41,6.20
2016,10,06,05,42,6.60
2016,10,06,05,43,6.40
2016,10,06,05,44,7.80
2016,10,06,05,45,7.60
2016,10,06,05,46,6.90
2016,10,06,05,47,10.70
2016,10,06,05,48,9.00
2016,10,06,05,49,6.00
2016,10,06,05,50,8.00
2016,10,06,05,51,8.40
2016,10,06,05,52,7.50
2016,10,06,05,53,5.30
2016,10,06,05,54,4.70
2016,10,06,05,55,7.90
2016,10,06,05,56,10.30
2016,10,06,05,57,9.10
2016,10,06,05,58,7.40
2016,10,06,05,59,9.50
2016,10,06,06,00,10.90
2016,10,06,06,01,7.60
2016,10,06,06,02,6.80
2016,10,06,06,03,7.60
2016,10,06,06,04,9.10
2016,10,06,06,05,6.20
2016,10,06,06,06,7.30
2016,10,06,06,07,6.70
2016,10,06,06,08,5.10
2016,10,06,06,09,3.10
2016,10,06,06,10,5.20
2016,10,06,06,11,6.70
2016,10,06,06,12,6.90
2016,10,06,06,13,10.70
2016,10,06,06,14,9.40
2016,10,06,06,15,8.10
2016,10,06,06,16,5.70
2016,10,06,06,17,7.80
2016,10,06,06,18,8.30
2016,10,06,06,19,8.70
2016,10,06,06,20,8.40
2016,10,06,06,21,9.00
2016,10,06,06,22,6.00
2016,10,06,06,23,6.10
2016,10,06,06,24,6.20
2016,10,06,06,25,9.00
2016,10,06,06,26,5.70
2016,10,06,06,27,6.10
2016,10,06,06,28,5.80
2016,10,06,06,29,5.60
2016,10,06,06,30,5.90
2016,10,06,06,31,7.70
2016,10,06,06,32,5.40
2016,10,06,06,33,4.20
2016,10,06,06,34,5.10
2016,10,06,06,35,7.40
2016,10,06,06,36,7.60
2016,10,06,06,37,7.20
2016,10,06,06,38,7.10
2016,10,06,06,39,8.90
2016,10,06,06,40,8.30
2016,10,06,06,41,7.80
2016,10,06,06,42,8.70
2016,10,06,06,43,7.50
2016,10,06,06,44,8.30
2016,10,06,06,45,6.80
2016,10,06,06,46,8.40
2016,10,06,06,47,7.00
2016,10,06,06,48,4.80
2016,10,06,06,49,2.90
2016,10,06,06,50,7.70
2016,10,06,06,51,6.10
2016,10,06,06,52,5.10
2016,10,06,06,53,6.20
2016,10,06,06,54,6.10
2016,10,06,06,55,7.30
2016,10,06,06,56,9.80
2016,10,06,06,57,8.40
2016,10,06,06,58,7.40
2016,10,06,06,59,6.10
2016,10,06,07,00,3.40
2016,10,06,07,01,6.10
2016,10,06,07,02,6.40
2016,10,06,07,03,5.10
2016,10,06,07,04,4.60
2016,10,06,07,05,4.70
2016,10,06,07,06,6.80
2016,10,06,07,07,5.90
2016,10,06,07,08,7.60
2016,10,06,07,09,8.20
2016,10,06,07,10,7.80
2016,10,06,07,11,5.80
2016,10,06,07,12,5.50
2016,10,06,07,13,8.60
2016,10,06,07,14,5.20
2016,10,06,07,15,5.50
2016,10,06,07,16,8.60
2016,10,06,07,17,9.40
2016,10,06,07,18,6.50
2016,10,06,07,19,6.80
2016,10,06,07,20,6.80
2016,10,06,07,21,5.10
2016,10,06,07,22,7.00
2016,10,06,07,23,5.00
2016,10,06,07,24,8.80
2016,10,06,07,25,4.20
2016,10,06,07,26,6.40
2016,10,06,07,27,5.50
2016,10,06,07,28,6.10
2016,10,06,07,29,7.70
2016,10,06,07,30,6.80
2016,10,06,07,31,8.20
2016,10,06,07,32,5.10
2016,10,06,07,33,4.80
2016,10,06,07,34,5.00
2016,10,06,07,35,6.70
2016,10,06,07,36,3.10
2016,10,06,07,37,6.60
2016,10,06,07,38,7.50
2016,10,06,07,39,5.90
2016,10,06,07,40,8.70
2016,10,06,07,41,5.80
2016,10,06,07,42,6.10
2016,10,06,07,43,4.60
2016,10,06,07,44,5.90
2016,10,06,07,45,4.40
2016,10,06,07,46,2.80
2016,10,06,07,47,2.80
2016,10,06,07,48,4.40
2016,10,06,07,49,6.10
2016,10,06,07,50,5.60
2016,10,06,07,51,4.70
2016,10,06,07,52,4.20
2016,10,06,07,53,2.40
2016,10,06,07,54,6.40
2016,10,06,07,55,4.10
2016,10,06,07,56,4.20
2016,10,06,07,57,5.80
2016,10,06,07,58,2.20
2016,10,06,07,59,3.60
2016,10,06,08,00,4.10
2016,10,06,08,01,3.40
2016,10,06,08,02,5.10
2016,10,06,08,03,5.90
2016,10,06,08,04,6.80
2016,10,06,08,05,5.50
2016,10,06,08,06,2.90
2016,10,06,08,07,4.50
2016,10,06,08,08,4.30
2016,10,06,08,09,4.40
2016,10,06,08,10,4.60
2016,10,06,08,11,4.50
2016,10,06,08,12,5.30
2016,10,06,08,13,4.00
2016,10,06,08,14,4.30
2016,10,06,08,15,7.60
2016,10,06,08,16,5.90
2016,10,06,08,17,1.60
2016,10,06,08,18,5.10
2016,10,06,08,19,7.40
2016,10,06,08,20,6.40
2016,10,06,08,21,6.10
2016,10,06,08,22,4.70
2016,10,06,08,23,4.30
2016,10,06,08,24,5.40
2016,10,06,08,25,6.20
2016,10,06,08,26,2.10
2016,10,06,08,27,5.30
2016,10,06,08,28,5.40
2016,10,06,08,29,4.80
2016,10,06,08,30,3.20
2016,10,06,08,31,4.80
2016,10,06,08,32,4.60
2016,10,06,08,33,3.10
2016,10,06,08,34,2.40
2016,10,06,08,35,6.10
2016,10,06,08,36,5.80
2016,10,06,08,37,5.60
2016,10,06,08,38,4.40
2016,10,06,08,39,3.40
2016,10,06,08,40,5.80
2016,10,06,08,41,4.20
2016,10,06,08,42,4.10
2016,10,06,08,43,2.50
2016,10,06,08,44,4.40
2016,10,06,08,45,3.50
2016,10,06,08,46,3.50
2016,10,06,08,47,5.70
2016,10,06,08,48,4.10
2016,10,06,08,49,6.40
2016,10,06,08,50,3.50
2016,10,06,08,51,4.30
2016,10,06,08,52,5.20
2016,10,06,08,53,7.90
2016,10,06,08,54,9.40
2016,10,06,08,55,5.20
2016,10,06,08,56,5.60
2016,10,06,08,57,3.50
2016,10,06,08,58,3.70
2016,10,06,08,59,8.40
2016,10,06,09,00,6.40
2016,10,06,09,01,3.10
2016,10,06,09,02,4.10
2016,10,06,09,03,5.80
2016,10,06,09,04,6.80
2016,10,06,09,05,6.90
2016,10,06,09,06,6.30
2016,10,06,09,07,5.00
2016,10,06,09,08,8.70
2016,10,06,09,09,7.20
2016,10,06,09,10,8.10
2016,10,06,09,11,7.70
2016,10,06,09,12,6.10
2016,10,06,09,13,4.20
2016,10,06,09,14,3.50
2016,10,06,09,15,6.20
2016,10,06,09,16,10.60
2016,10,06,09,17,5.10
2016,10,06,09,18,4.10
2016,10,06,09,19,6.10
2016,10,06,09,20,7.30
2016,10,06,09,21,7.40
2016,10,06,09,22,11.30
2016,10,06,09,23,8.70
2016,10,06,09,24,7.70
2016,10,06,09,25,6.40
2016,10,06,09,26,6.10
2016,10,06,09,27,8.60
2016,10,06,09,28,7.40
2016,10,06,09,29,6.10
2016,10,06,09,30,7.40
2016,10,06,09,31,7.20
2016,10,06,09,32,7.10
2016,10,06,09,33,6.30
2016,10,06,09,34,7.40
2016,10,06,09,35,4.50
2016,10,06,09,36,7.30
2016,10,06,09,37,6.50
2016,10,06,09,38,7.80
2016,10,06,09,39,7.90
2016,10,06,09,40,8.30
2016,10,06,09,41,10.50
2016,10,06,09,42,8.10
2016,10,06,09,43,9.90
2016,10,06,09,44,8.70
2016,10,06,09,45,8.70
2016,10,06,09,46,7.60
2016,10,06,09,47,5.30
2016,10,06,09,48,7.70
2016,10,06,09,49,6.60
2016,10,06,09,50,6.00
2016,10,06,09,51,6.90
2016,10,06,09,52,8.60
2016,10,06,09,53,8.10
2016,10,06,09,54,5.70
2016,10,06,09,55,8.40
2016,10,06,09,56,7.70
2016,10,06,09,57,4.60
2016,10,06,09,58,5.80
2016,10,06,09,59,8.30
2016,10,06,10,00,6.30
2016,10,06,10,01,7.40
2016,10,06,10,02,7.90
2016,10,06,10,03,7.90
2016,10,06,10,04,4.80
2016,10,06,10,05,7.80
2016,10,06,10,06,8.80
2016,10,06,10,07,8.30
2016,10,06,10,08,7.70
2016,10,06,10,09,7.00
2016,10,06,10,10,4.80
2016,10,06,10,11,5.50
2016,10,06,10,12,5.90
2016,10,06,10,13,7.00
2016,10,06,10,14,5.50
2016,10,06,10,15,3.60
2016,10,06,10,16,7.20
2016,10,06,10,17,8.50
2016,10,06,10,18,9.70
2016,10,06,10,19,9.50
2016,10,06,10,20,8.70
2016,10,06,10,21,9.20
2016,10,06,10,22,7.90
2016,10,06,10,23,11.30
2016,10,06,10,24,9.20
2016,10,06,10,25,9.40
2016,10,06,10,26,8.80
2016,10,06,10,27,8.70
2016,10,06,10,28,9.70
2016,10,06,10,29,9.80
2016,10,06,10,30,8.90
2016,10,06,10,31,7.20
2016,10,06,10,32,10.00
2016,10,06,10,33,8.70
2016,10,06,10,34,5.90
2016,10,06,10,35,5.90
2016,10,06,10,36,5.90
2016,10,06,10,37,8.60
2016,10,06,10,38,5.40
2016,10,06,10,39,6.50
2016,10,06,10,40,8.60
2016,10,06,10,41,8.70
2016,10,06,10,42,10.00
2016,10,06,10,43,8.80
2016,10,06,10,44,10.70
2016,10,06,10,45,9.70
2016,10,06,10,46,10.80
2016,10,06,10,47,10.30
2016,10,06,10,48,8.80
2016,10,06,10,49,8.30
2016,10,06,10,50,7.70
2016,10,06,10,51,6.20
2016,10,06,10,52,6.40
2016,10,06,10,53,6.80
2016,10,06,10,54,7.70
2016,10,06,10,55,8.90
2016,10,06,10,56,9.40
2016,10,06,10,57,8.40
2016,10,06,10,58,9.00
2016,10,06,10,59,8.80
2016,10,06,11,00,7.90
2016,10,06,11,01,5.60
2016,10,06,11,02,5.20
2016,10,06,11,03,7.90
2016,10,06,11,04,7.10
2016,10,06,11,05,9.40
2016,10,06,11,06,10.40
2016,10,06,11,07,8.30
2016,10,06,11,08,8.40
2016,10,06,11,09,8.10
2016,10,06,11,10,8.80
2016,10,06,11,11,8.90
2016,10,06,11,12,8.80
2016,10,06,11,13,10.40
2016,10,06,11,14,8.40
2016,10,06,11,15,8.40
2016,10,06,11,16,10.70
2016,10,06,11,17,10.30
2016,10,06,11,18,10.40
2016,10,06,11,19,10.20
2016,10,06,11,20,10.20
2016,10,06,11,21,9.50
2016,10,06,11,22,10.90
2016,10,06,11,23,10.20
2016,10,06,11,24,7.60
2016,10,06,11,25,11.30
2016,10,06,11,26,11.20
2016,10,06,11,27,9.60
2016,10,06,11,28,9.10
2016,10,06,11,29,7.60
2016,10,06,11,30,10.00
2016,10,06,11,31,10.30
2016,10,06,11,32,12.00
2016,10,06,11,33,8.60
2016,10,06,11,34,7.30
2016,10,06,11,35,10.30
2016,10,06,11,36,10.50
2016,10,06,11,37,9.60
2016,10,06,11,38,9.30
2016,10,06,11,39,12.00
2016,10,06,11,40,8.90
2016,10,06,11,41,8.70
2016,10,06,11,42,8.90
2016,10,06,11,43,8.50
2016,10,06,11,44,8.80
2016,10,06,11,45,7.70
2016,10,06,11,46,8.60
2016,10,06,11,47,7.00
2016,10,06,11,48,10.00
2016,10,06,11,49,8.20
2016,10,06,11,50,8.40
2016,10,06,11,51,10.30
2016,10,06,11,52,10.00
2016,10,06,11,53,10.20
2016,10,06,11,54,9.70
2016,10,06,11,55,8.10
2016,10,06,11,56,14.40
2016,10,06,11,57,10.40
2016,10,06,11,58,14.00
2016,10,06,11,59,9.40
2016,10,06,12,00,9.50
2016,10,06,12,01,7.20
2016,10,06,12,02,8.70
2016,10,06,12,03,8.20
2016,10,06,12,04,7.40
2016,10,06,12,05,10.10
2016,10,06,12,06,12.20
2016,10,06,12,07,10.20
2016,10,06,12,08,6.10
2016,10,06,12,09,7.70
2016,10,06,12,10,6.20
2016,10,06,12,11,8.20
2016,10,06,12,12,9.50
2016,10,06,12,13,11.00
2016,10,06,12,14,9.20
2016,10,06,12,15,3.80
2016,10,06,12,16,6.80
2016,10,06,12,17,5.70
2016,10,06,12,18,7.80
2016,10,06,12,19,7.80
2016,10,06,12,20,6.00
2016,10,06,12,21,5.60
2016,10,06,12,22,4.80
2016,10,06,12,23,3.80
2016,10,06,12,24,10.70
2016,10,06,12,25,10.70
2016,10,06,12,26,9.40
2016,10,06,12,27,5.30
2016,10,06,12,28,6.10
2016,10,06,12,29,3.70
2016,10,06,12,30,6.80
2016,10,06,12,31,12.30
2016,10,06,12,32,8.90
2016,10,06,12,33,10.00
2016,10,06,12,34,10.90
2016,10,06,12,35,8.70
2016,10,06,12,36,7.50
2016,10,06,12,37,7.40
2016,10,06,12,38,9.00
2016,10,06,12,39,9.40
2016,10,06,12,40,9.60
2016,10,06,12,41,4.70
2016,10,06,12,42,5.70
2016,10,06,12,43,8.40
2016,10,06,12,44,6.80
2016,10,06,12,45,5.80
2016,10,06,12,46,8.00
2016,10,06,12,47,6.90
2016,10,06,12,48,7.00
2016,10,06,12,49,5.90
2016,10,06,12,50,7.30
2016,10,06,12,51,10.00
2016,10,06,12,52,8.20
2016,10,06,12,53,9.00
2016,10,06,12,54,8.80
2016,10,06,12,55,9.40
2016,10,06,12,56,8.00
2016,10,06,12,57,9.20
2016,10,06,12,58,7.40
2016,10,06,12,59,9.90
2016,10,06,13,00,9.40
2016,10,06,13,01,8.70
2016,10,06,13,02,8.30
2016,10,06,13,03,7.00
2016,10,06,13,04,7.10
2016,10,06,13,05,5.50
2016,10,06,13,06,8.10
2016,10,06,13,07,8.80
2016,10,06,13,08,8.40
2016,10,06,13,09,11.60
2016,10,06,13,10,8.40
2016,10,06,13,11,7.50
2016,10,06,13,12,10.50
2016,10,06,13,13,11.90
2016,10,06,13,14,8.00
2016,10,06,13,15,10.70
2016,10,06,13,16,9.80
2016,10,06,13,17,12.00
2016,10,06,13,18,7.30
2016,10,06,13,19,6.40
2016,10,06,13,20,6.70
2016,10,06,13,21,10.60
2016,10,06,13,22,9.90
2016,10,06,13,23,8.70
2016,10,06,13,24,10.50
2016,10,06,13,25,13.10
2016,10,06,13,26,11.60
2016,10,06,13,27,10.20
2016,10,06,13,28,14.10
2016,10,06,13,29,11.80
2016,10,06,13,30,12.90
2016,10,06,13,31,10.40
2016,10,06,13,32,8.30
2016,10,06,13,33,8.80
2016,10,06,13,34,9.10
2016,10,06,13,35,11.50
2016,10,06,13,36,13.80
2016,10,06,13,37,13.10
2016,10,06,13,38,11.40
2016,10,06,13,39,11.10
2016,10,06,13,40,8.40
2016,10,06,13,41,14.60
2016,10,06,13,42,11.90
2016,10,06,13,43,12.80
2016,10,06,13,44,12.90
2016,10,06,13,45,12.30
2016,10,06,13,46,13.70
2016,10,06,13,47,11.70
2016,10,06,13,48,11.60
2016,10,06,13,49,11.70
2016,10,06,13,50,13.90
2016,10,06,13,51,12.70
2016,10,06,13,52,12.70
2016,10,06,13,53,11.00
2016,10,06,13,54,12.60
2016,10,06,13,55,14.30
2016,10,06,13,56,12.50
2016,10,06,13,57,14.20
2016,10,06,13,58,14.40
2016,10,06,13,59,10.00
2016,10,06,14,00,8.90
2016,10,06,14,01,9.90
2016,10,06,14,02,9.40
2016,10,06,14,03,12.40
2016,10,06,14,04,12.30
2016,10,06,14,05,10.00
2016,10,06,14,06,9.40
2016,10,06,14,07,11.50
2016,10,06,14,08,11.20
2016,10,06,14,09,9.00
2016,10,06,14,10,12.30
2016,10,06,14,11,14.00
2016,10,06,14,12,12.30
2016,10,06,14,13,10.00
2016,10,06,14,14,11.60
2016,10,06,14,15,8.40
2016,10,06,14,16,9.60
2016,10,06,14,17,10.30
2016,10,06,14,18,9.10
2016,10,06,14,19,10.50
2016,10,06,14,20,8.40
2016,10,06,14,21,7.70
2016,10,06,14,22,11.60
2016,10,06,14,23,10.20
2016,10,06,14,24,6.80
2016,10,06,14,25,10.70
2016,10,06,14,26,9.60
2016,10,06,14,27,9.10
2016,10,06,14,28,10.10
2016,10,06,14,29,11.00
2016,10,06,14,30,7.00
2016,10,06,14,31,8.00
2016,10,06,14,32,7.80
2016,10,06,14,33,8.80
2016,10,06,14,34,10.90
2016,10,06,14,35,12.10
2016,10,06,14,36,14.30
2016,10,06,14,37,14.50
2016,10,06,14,38,17.00
2016,10,06,14,39,15.40
2016,10,06,14,40,14.90
2016,10,06,14,41,15.60
2016,10,06,14,42,12.00
2016,10,06,14,43,9.90
2016,10,06,14,44,13.30
2016,10,06,14,45,7.40
2016,10,06,14,46,9.90
2016,10,06,14,47,6.60
2016,10,06,14,48,13.80
2016,10,06,14,49,13.70
2016,10,06,14,50,17.80
2016,10,06,14,51,11.80
2016,10,06,14,52,10.90
2016,10,06,14,53,12.10
2016,10,06,14,54,13.90
2016,10,06,14,55,13.30
2016,10,06,14,56,12.00
2016,10,06,14,57,14.10
2016,10,06,14,58,12.40
2016,10,06,14,59,11.70
2016,10,06,15,00,8.60
2016,10,06,15,01,11.40
2016,10,06,15,02,9.00
2016,10,06,15,03,9.30
2016,10,06,15,04,13.00
2016,10,06,15,05,12.30
2016,10,06,15,06,13.00
2016,10,06,15,07,11.30
2016,10,06,15,08,9.20
2016,10,06,15,09,9.70
2016,10,06,15,10,12.20
2016,10,06,15,11,11.40
2016,10,06,15,12,9.00
2016,10,06,15,13,10.60
2016,10,06,15,14,8.80
2016,10,06,15,15,8.50
2016,10,06,15,16,12.80
2016,10,06,15,17,14.60
2016,10,06,15,18,11.40
2016,10,06,15,19,16.30
2016,10,06,15,20,14.70
2016,10,06,15,21,13.10
2016,10,06,15,22,14.90
2016,10,06,15,23,12.70
2016,10,06,15,24,15.40
2016,10,06,15,25,15.60
2016,10,06,15,26,16.20
2016,10,06,15,27,12.70
2016,10,06,15,28,15.10
2016,10,06,15,29,20.20
2016,10,06,15,30,18.10
2016,10,06,15,31,14.40
2016,10,06,15,32,13.10
2016,10,06,15,33,12.80
2016,10,06,15,34,12.10
2016,10,06,15,35,15.00
2016,10,06,15,36,14.70
2016,10,06,15,37,16.90
2016,10,06,15,38,10.10
2016,10,06,15,39,15.20
2016,10,06,15,40,16.10
2016,10,06,15,41,13.20
2016,10,06,15,42,18.80
2016,10,06,15,43,15.60
2016,10,06,15,44,18.20
2016,10,06,15,45,17.90
2016,10,06,15,46,12.00
2016,10,06,15,47,15.40
2016,10,06,15,48,16.60
2016,10,06,15,49,15.30
2016,10,06,15,50,15.90
2016,10,06,15,51,13.30
2016,10,06,15,52,17.10
2016,10,06,15,53,19.10
2016,10,06,15,54,15.10
2016,10,06,15,55,17.20
2016,10,06,15,56,10.00
2016,10,06,15,57,13.50
2016,10,06,15,58,14.70
2016,10,06,15,59,14.20
2016,10,06,16,00,17.80
2016,10,06,16,01,18.40
2016,10,06,16,02,15.20
2016,10,06,16,03,17.60
2016,10,06,16,04,16.90
2016,10,06,16,05,18.60
2016,10,06,16,06,16.70
2016,10,06,16,07,17.20
2016,10,06,16,08,15.90
2016,10,06,16,09,11.70
2016,10,06,16,10,16.20
2016,10,06,16,11,15.60
2016,10,06,16,12,16.20
2016,10,06,16,13,12.70
2016,10,06,16,14,10.70
2016,10,06,16,15,13.20
2016,10,06,16,16,15.20
2016,10,06,16,17,13.50
2016,10,06,16,18,17.10
2016,10,06,16,19,11.90
2016,10,06,16,20,17.80
2016,10,06,16,21,13.80
2016,10,06,16,22,14.00
2016,10,06,16,23,15.70
2016,10,06,16,24,11.00
2016,10,06,16,25,14.60
2016,10,06,16,26,14.00
2016,10,06,16,27,15.70
2016,10,06,16,28,17.20
2016,10,06,16,29,16.80
2016,10,06,16,30,17.60
2016,10,06,16,31,16.20
2016,10,06,16,32,14.90
2016,10,06,16,33,15.60
2016,10,06,16,34,18.20
2016,10,06,16,35,15.00
2016,10,06,16,36,17.70
2016,10,06,16,37,13.10
2016,10,06,16,38,17.10
2016,10,06,16,39,12.70
2016,10,06,16,40,15.30
2016,10,06,16,41,15.10
2016,10,06,16,42,12.30
2016,10,06,16,43,16.30
2016,10,06,16,44,13.30
2016,10,06,16,45,17.20
2016,10,06,16,46,17.10
2016,10,06,16,47,19.20
2016,10,06,16,48,14.00
2016,10,06,16,49,16.40
2016,10,06,16,50,18.00
2016,10,06,16,51,14.00
2016,10,06,16,52,13.50
2016,10,06,16,53,14.70
2016,10,06,16,54,16.30
2016,10,06,16,55,14.60
2016,10,06,16,56,15.50
2016,10,06,16,57,16.40
2016,10,06,16,58,13.60
2016,10,06,16,59,14.00
2016,10,06,17,00,16.50
2016,10,06,17,01,12.70
2016,10,06,17,02,12.20
2016,10,06,17,03,13.20
2016,10,06,17,04,10.80
2016,10,06,17,05,17.50
2016,10,06,17,06,14.90
2016,10,06,17,07,23.60
2016,10,06,17,08,17.90
2016,10,06,17,09,19.20
2016,10,06,17,10,20.80
2016,10,06,17,11,13.70
2016,10,06,17,12,17.20
2016,10,06,17,13,19.10
2016,10,06,17,14,15.00
2016,10,06,17,15,19.70
2016,10,06,17,16,14.50
2016,10,06,17,17,19.10
2016,10,06,17,18,16.50
2016,10,06,17,19,16.80
2016,10,06,17,20,15.50
2016,10,06,17,21,17.60
2016,10,06,17,22,17.60
2016,10,06,17,23,18.90
2016,10,06,17,24,11.20
2016,10,06,17,25,13.90
2016,10,06,17,26,13.50
2016,10,06,17,27,16.20
2016,10,06,17,28,16.90
2016,10,06,17,29,29.70
2016,10,06,17,30,19.80
2016,10,06,17,31,15.30
2016,10,06,17,32,19.30
2016,10,06,17,33,22.80
2016,10,06,17,34,21.80
2016,10,06,17,35,20.20
2016,10,06,17,36,19.20
2016,10,06,17,37,20.30
2016,10,06,17,38,18.90
2016,10,06,17,39,16.90
2016,10,06,17,40,21.80
2016,10,06,17,41,21.60
2016,10,06,17,42,17.60
2016,10,06,17,43,16.90
2016,10,06,17,44,21.00
2016,10,06,17,45,23.70
2016,10,06,17,46,23.30
2016,10,06,17,47,17.90
2016,10,06,17,48,26.30
2016,10,06,17,49,21.20
2016,10,06,17,50,14.20
2016,10,06,17,51,18.70